Flag for Russia Weather past 2 weeks in Krasnodar, Russia

Now
86 °F

Sunny.


Feels Like: 88 °F
Forecast: 75 / 97 °F
Wind: 3 mph from East

Location: Krasnodar Airport

Current Time: Jul 31, 2015 at 10:53:01 AM

Latest Report: Jul 31, 2015 at 10:00 AM


Visibility: 10 mi

Pressure: 29.74 "Hg

Humidity: 52%

Dew point: 66 °F

Location of KrasnodarLocation

Historic Weather in Krasnodar — Graph

°F

Krasnodar temperature yesterday

Maximum temperature yesterday: 95 °F (at 4:30 PM)
Minimum temperature yesterday: 68 °F (at 3:30 AM)
Average temperature yesterday: 82 °F

Past Weeks' High & Low Weather Summary

 TemperatureHumidityPressure
High99 °F (Jul 25, 2:00 PM)100% (Jul 29, 3:30 AM)30.07 "Hg (Jul 29, 3:30 AM)
Low57 °F (Jul 23, 3:30 AM)24% (Jul 25, 2:30 PM)29.65 "Hg (Jul 25, 10:30 PM)
Average78 °F60%29.87 "Hg
* Reported Jul 16 9:00 AM — Jul 31 9:30 AM, Krasnodar, Weather by CustomWeather, © 2015

Note: Actual official high and low records may vary slightly from our data, if they occured in-between our weather recording intervals... More about our weather records

Advertising

Krasnodar weather history for previous 24 hours

 ConditionsComfort  
Time TempWeatherWind HumidityBarometerVisibility
9:30 AM
Fri, Jul 31
86 °FPassing clouds.3 mph52%29.77 "HgN/A
9:00 AM84 °FPassing clouds.3 mph55%29.77 "HgN/A
8:30 AM81 °FPassing clouds.3 mph62%29.77 "HgN/A
8:00 AM81 °FSunny.3 mph58%29.77 "Hg10 mi
7:30 AM79 °FSunny.6 mph61%29.77 "Hg10 mi
7:00 AM77 °FSunny.1 mph65%29.77 "Hg10 mi
6:30 AM73 °FSunny.3 mph74%29.77 "Hg10 mi
6:00 AM70 °FClear.3 mph83%29.77 "Hg10 mi
5:30 AM68 °FClear.1 mph94%29.77 "Hg10 mi
5:00 AM70 °FClear.No wind83%29.77 "Hg10 mi
4:30 AM70 °FClear.3 mph88%29.77 "Hg10 mi
4:00 AM70 °FPassing clouds.3 mph83%29.77 "HgN/A
3:30 AM72 °FClear.6 mph83%29.77 "Hg10 mi
3:00 AM72 °FClear.6 mph83%29.77 "Hg10 mi
2:30 AM72 °FPassing clouds.6 mph83%29.77 "HgN/A
2:00 AM73 °FClear.3 mph78%29.77 "Hg10 mi
1:30 AM75 °FClear.3 mph74%29.80 "Hg10 mi
1:00 AM77 °FClear.3 mph69%29.77 "Hg10 mi
12:30 AM79 °FClear.6 mph65%29.77 "Hg10 mi
12:00 AM79 °FClear.8 mph65%29.80 "Hg10 mi
11:30 PM
Thu, Jul 30
81 °FClear.10 mph62%29.80 "Hg10 mi
11:00 PM81 °FClear.8 mph62%29.77 "Hg10 mi
10:30 PM82 °FClear.8 mph62%29.77 "Hg10 mi
10:00 PM82 °FClear.8 mph62%29.80 "Hg10 mi
9:30 PM84 °FClear.8 mph58%29.80 "Hg10 mi
9:00 PM84 °FClear.10 mph58%29.80 "Hg10 mi
8:30 PM86 °FSunny.10 mph55%29.80 "Hg10 mi
8:00 PM88 °FSunny.10 mph49%29.80 "Hg10 mi
7:30 PM90 °FSunny.10 mph49%29.80 "Hg10 mi
7:00 PM91 °FSunny.8 mph49%29.80 "Hg10 mi
6:30 PM93 °FSunny.6 mph44%29.80 "Hg10 mi
6:00 PM93 °FPassing clouds.8 mph44%29.80 "HgN/A
5:30 PM93 °FSunny.8 mph44%29.80 "Hg10 mi
5:00 PM95 °FPassing clouds.8 mph39%29.80 "HgN/A
4:30 PM95 °FScattered clouds.8 mph39%29.80 "HgN/A
4:00 PM93 °FScattered clouds.6 mph44%29.80 "HgN/A
3:30 PM93 °FScattered clouds.6 mph44%29.83 "HgN/A
3:00 PM93 °FScattered clouds.6 mph44%29.83 "HgN/A
2:30 PM93 °FScattered clouds.3 mph47%29.83 "HgN/A
2:00 PM91 °FPassing clouds.8 mph49%29.83 "HgN/A
1:30 PM90 °FPassing clouds.6 mph52%29.83 "HgN/A
1:00 PM90 °FPassing clouds.6 mph49%29.83 "HgN/A
12:30 PM91 °FPassing clouds.6 mph46%29.86 "HgN/A
12:00 PM90 °FPassing clouds.3 mph52%29.86 "HgN/A
11:30 AM88 °FSunny.6 mph55%29.86 "Hg10 mi
11:00 AM86 °FPassing clouds.6 mph59%29.86 "HgN/A
10:30 AM86 °FPassing clouds.6 mph62%29.89 "HgN/A
10:00 AM84 °FPassing clouds.6 mph66%29.89 "HgN/A
Weather by CustomWeather, © 2015

See weather overviewHow to use our weather pages